| time (UTC) | temp F | wind direction | speed MPH | gust MPH | rain 1hr in | rain 24hr in | rain mn in | humidity % | barometer mb |
| 20260507153447 | 58 | 63 | 2.0 | 3.0 | 0.00 | 0.00 | 0.00 | 63 | |
| 20260507152943 | 58 | 333 | 1.0 | 3.0 | 0.00 | 0.00 | 0.00 | 64 | |
| 20260507152439 | 57 | 344 | 1.0 | 2.0 | 0.00 | 0.00 | 0.00 | 65 | |
| 20260507151935 | 57 | 222 | 0.0 | 1.0 | 0.00 | 0.00 | 0.00 | 65 | |
| 20260507151432 | 57 | 73 | 2.0 | 3.0 | 0.00 | 0.00 | 0.00 | 65 | |
| 20260507150929 | 57 | 293 | 1.0 | 2.0 | 0.00 | 0.00 | 0.00 | 66 | |
| 20260507150426 | 57 | 234 | 2.0 | 3.0 | 0.00 | 0.00 | 0.00 | 66 | |
| 20260507145922 | 56 | 358 | 1.0 | 3.0 | 0.00 | 0.00 | 0.00 | 65 | |
| 20260507145418 | 56 | 321 | 0.0 | 3.0 | 0.00 | 0.00 | 0.00 | 66 | |
| 20260507144915 | 56 | 27 | 0.0 | 3.0 | 0.00 | 0.00 | 0.00 | 65 | |
| 20260507144412 | 56 | 4 | 1.0 | 3.0 | 0.00 | 0.00 | 0.00 | 66 | |
| 20260507143909 | 55 | 248 | 3.0 | 7.0 | 0.00 | 0.00 | 0.00 | 66 | |
| 20260507143406 | 55 | 332 | 0.0 | 2.0 | 0.00 | 0.00 | 0.00 | 67 | |
| 20260507142903 | 55 | 353 | 1.0 | 2.0 | 0.00 | 0.00 | 0.00 | 67 | |
| 20260507142358 | 55 | 345 | 1.0 | 3.0 | 0.00 | 0.00 | 0.00 | 67 | |
| 20260507141856 | 54 | 358 | 2.0 | 2.0 | 0.00 | 0.00 | 0.00 | 67 | |
| 20260507141352 | 54 | 328 | 0.0 | 1.0 | 0.00 | 0.00 | 0.00 | 68 | |
| 20260507140849 | 54 | 324 | 0.0 | 1.0 | 0.00 | 0.00 | 0.00 | 67 | |
| 20260507140345 | 53 | 343 | 0.0 | 0.0 | 0.00 | 0.00 | 0.00 | 69 | |
| 20260507135844 | 53 | 332 | 0.0 | 0.0 | 0.00 | 0.00 | 0.00 | 70 | |
| 20260507135340 | 52 | 316 | 0.0 | 0.0 | 0.00 | 0.00 | 0.00 | 70 | |
| 20260507134838 | 52 | 321 | 2.0 | 3.0 | 0.00 | 0.00 | 0.00 | 70 | |
| 20260507134333 | 52 | 311 | 0.0 | 0.0 | 0.00 | 0.00 | 0.00 | 71 | |
| 20260507133829 | 51 | 334 | 0.0 | 0.0 | 0.00 | 0.00 | 0.00 | 72 | |
| 20260507133325 | 51 | 274 | 0.0 | 0.0 | 0.00 | 0.00 | 0.00 | 72 | |
| 20260507132824 | 51 | 352 | 0.0 | 1.0 | 0.00 | 0.00 | 0.00 | 72 | |
| 20260507132319 | 50 | 255 | 0.0 | 0.0 | 0.00 | 0.00 | 0.00 | 73 | |
| 20260507131817 | 50 | 13 | 0.0 | 0.0 | 0.00 | 0.00 | 0.00 | 73 | |
| 20260507131314 | 50 | 323 | 0.0 | 0.0 | 0.00 | 0.00 | 0.00 | 73 | |
| 20260507130810 | 49 | 318 | 0.0 | 2.0 | 0.00 | 0.00 | 0.00 | 74 | |
| 20260507130308 | 49 | 323 | 0.0 | 0.0 | 0.00 | 0.00 | 0.00 | 74 | |
| 20260507125807 | 49 | 317 | 0.0 | 0.0 | 0.00 | 0.00 | 0.00 | 75 | |
| 20260507125306 | 48 | 325 | 0.0 | 0.0 | 0.00 | 0.00 | 0.00 | 75 | |
| 20260507124801 | 48 | 340 | 0.0 | 0.0 | 0.00 | 0.00 | 0.00 | 74 | |
| 20260507124257 | 48 | 6 | 0.0 | 0.0 | 0.00 | 0.00 | 0.00 | 75 | |
| 20260507123756 | 47 | 340 | 0.0 | 0.0 | 0.00 | 0.00 | 0.00 | 75 | |
| 20260507123253 | 47 | 331 | 0.0 | 0.0 | 0.00 | 0.00 | 0.00 | 75 | |
| 20260507122748 | 46 | 335 | 0.0 | 0.0 | 0.00 | 0.00 | 0.00 | 76 | |
| 20260507122244 | 46 | 337 | 0.0 | 1.0 | 0.00 | 0.00 | 0.00 | 76 | |
| 20260507121740 | 46 | 344 | 0.0 | 0.0 | 0.00 | 0.00 | 0.00 | 76 | |
| 20260507121236 | 45 | 328 | 0.0 | 0.0 | 0.00 | 0.00 | 0.00 | 77 | |
| 20260507120732 | 45 | 336 | 0.0 | 0.0 | 0.00 | 0.00 | 0.00 | 77 | |
| 20260507120230 | 45 | 335 | 0.0 | 0.0 | 0.00 | 0.00 | 0.00 | 77 | |
| 20260507115726 | 45 | 337 | 0.0 | 0.0 | 0.00 | 0.00 | 0.00 | 77 | |
| 20260507115222 | 44 | 346 | 0.0 | 0.0 | 0.00 | 0.00 | 0.00 | 76 | |
| 20260507114717 | 45 | 342 | 0.0 | 0.0 | 0.00 | 0.00 | 0.00 | 76 | |
| 20260507114215 | 45 | 340 | 0.0 | 0.0 | 0.00 | 0.00 | 0.00 | 75 | |
| 20260507113712 | 44 | 337 | 0.0 | 0.0 | 0.00 | 0.00 | 0.00 | 75 | |
| 20260507113209 | 45 | 335 | 0.0 | 0.0 | 0.00 | 0.00 | 0.00 | 75 | |
| 20260507112707 | 45 | 335 | 0.0 | 0.0 | 0.00 | 0.00 | 0.00 | 75 | |
| 20260507112203 | 45 | 335 | 0.0 | 0.0 | 0.00 | 0.00 | 0.00 | 75 | |
| 20260507111701 | 45 | 338 | 0.0 | 0.0 | 0.00 | 0.00 | 0.00 | 75 | |
| 20260507111157 | 44 | 335 | 0.0 | 0.0 | 0.00 | 0.00 | 0.00 | 75 | |
| 20260507110653 | 44 | 335 | 0.0 | 0.0 | 0.00 | 0.00 | 0.00 | 74 | |
| 20260507110150 | 44 | 335 | 0.0 | 0.0 | 0.00 | 0.00 | 0.00 | 74 | |
| 20260507105647 | 44 | 339 | 0.0 | 0.0 | 0.00 | 0.00 | 0.00 | 74 | |
| 20260507105143 | 44 | 335 | 0.0 | 0.0 | 0.00 | 0.00 | 0.00 | 74 | |
| 20260507104641 | 44 | 335 | 0.0 | 0.0 | 0.00 | 0.00 | 0.00 | 73 | |
| 20260507104137 | 44 | 339 | 0.0 | 0.0 | 0.00 | 0.00 | 0.00 | 73 | |
| 20260507103633 | 44 | 339 | 0.0 | 0.0 | 0.00 | 0.00 | 0.00 | 73 | |
| 20260507103130 | 44 | 340 | 0.0 | 0.0 | 0.00 | 0.00 | 0.00 | 72 | |
| 20260507102626 | 44 | 339 | 0.0 | 0.0 | 0.00 | 0.00 | 0.00 | 72 | |
| 20260507102123 | 44 | 335 | 0.0 | 0.0 | 0.00 | 0.00 | 0.00 | 72 | |
| 20260507101618 | 44 | 335 | 0.0 | 0.0 | 0.00 | 0.00 | 0.00 | 72 | |
| 20260507101115 | 44 | 336 | 0.0 | 0.0 | 0.00 | 0.00 | 0.00 | 71 | |
| 20260507100612 | 45 | 335 | 0.0 | 0.0 | 0.00 | 0.00 | 0.00 | 70 | |
| 20260507100110 | 45 | 339 | 0.0 | 0.0 | 0.00 | 0.00 | 0.00 | 70 | |
| 20260507095608 | 45 | 340 | 0.0 | 0.0 | 0.00 | 0.00 | 0.00 | 69 | |
| 20260507095104 | 45 | 336 | 0.0 | 0.0 | 0.00 | 0.00 | 0.00 | 70 | |
| 20260507094600 | 45 | 335 | 0.0 | 0.0 | 0.00 | 0.00 | 0.00 | 70 | |
| 20260507094057 | 45 | 335 | 0.0 | 0.0 | 0.00 | 0.00 | 0.00 | 69 | |
| 20260507093555 | 45 | 335 | 0.0 | 0.0 | 0.00 | 0.00 | 0.00 | 69 | |
| 20260507093053 | 44 | 335 | 0.0 | 0.0 | 0.00 | 0.00 | 0.00 | 69 | |
| 20260507092549 | 44 | 335 | 0.0 | 0.0 | 0.00 | 0.00 | 0.00 | 69 | |
| 20260507092046 | 44 | 335 | 0.0 | 0.0 | 0.00 | 0.00 | 0.00 | 68 | |
| 20260507091543 | 45 | 335 | 0.0 | 0.0 | 0.00 | 0.00 | 0.00 | 68 | |
| 20260507091039 | 45 | 335 | 0.0 | 0.0 | 0.00 | 0.00 | 0.00 | 68 | |
| 20260507090535 | 45 | 335 | 0.0 | 0.0 | 0.00 | 0.00 | 0.00 | 68 | |
| 20260507090032 | 45 | 335 | 0.0 | 0.0 | 0.00 | 0.00 | 0.00 | 68 | |
| 20260507085529 | 45 | 335 | 0.0 | 0.0 | 0.00 | 0.00 | 0.00 | 68 | |
| 20260507085026 | 45 | 335 | 0.0 | 0.0 | 0.00 | 0.00 | 0.00 | 67 | |
| 20260507084522 | 45 | 335 | 0.0 | 0.0 | 0.00 | 0.00 | 0.00 | 67 | |
| 20260507084020 | 45 | 335 | 0.0 | 0.0 | 0.00 | 0.00 | 0.00 | 67 | |
| 20260507083516 | 45 | 335 | 0.0 | 0.0 | 0.00 | 0.00 | 0.00 | 66 | |
| 20260507083013 | 45 | 335 | 0.0 | 0.0 | 0.00 | 0.00 | 0.00 | 66 | |
| 20260507082509 | 45 | 335 | 0.0 | 0.0 | 0.00 | 0.00 | 0.00 | 67 | |
| 20260507082005 | 46 | 335 | 0.0 | 0.0 | 0.00 | 0.00 | 0.00 | 66 | |
| 20260507081501 | 46 | 335 | 0.0 | 0.0 | 0.00 | 0.00 | 0.00 | 66 | |
| 20260507080959 | 46 | 335 | 0.0 | 0.0 | 0.00 | 0.00 | 0.00 | 66 | |
| 20260507080454 | 46 | 335 | 0.0 | 0.0 | 0.00 | 0.00 | 0.00 | 66 | |
| 20260507075950 | 46 | 335 | 0.0 | 0.0 | 0.00 | 0.00 | 0.00 | 66 | |
| 20260507075446 | 46 | 335 | 0.0 | 0.0 | 0.00 | 0.00 | 0.00 | 66 | |
| 20260507074943 | 46 | 335 | 0.0 | 0.0 | 0.00 | 0.00 | 0.00 | 66 | |
| 20260507074440 | 46 | 335 | 0.0 | 0.0 | 0.00 | 0.00 | 0.00 | 65 | |
| 20260507073938 | 46 | 335 | 0.0 | 0.0 | 0.00 | 0.00 | 0.00 | 65 | |
| 20260507073434 | 46 | 335 | 0.0 | 0.0 | 0.00 | 0.00 | 0.00 | 65 | |
| 20260507072931 | 46 | 335 | 0.0 | 0.0 | 0.00 | 0.00 | 0.00 | 64 | |
| 20260507072428 | 46 | 335 | 0.0 | 0.0 | 0.00 | 0.00 | 0.00 | 64 | |
| 20260507071926 | 46 | 335 | 0.0 | 0.0 | 0.00 | 0.00 | 0.00 | 64 | |
| 20260507071423 | 46 | 335 | 0.0 | 0.0 | 0.00 | 0.00 | 0.00 | 65 | |
| 20260507070919 | 47 | 335 | 0.0 | 0.0 | 0.00 | 0.00 | 0.00 | 65 | |
| 20260507070417 | 47 | 335 | 0.0 | 0.0 | 0.00 | 0.00 | 0.00 | 65 | |
| 20260507065913 | 47 | 335 | 0.0 | 0.0 | 0.00 | 0.00 | 0.00 | 63 | |
| 20260507065410 | 47 | 335 | 0.0 | 0.0 | 0.00 | 0.00 | 0.00 | 63 | |
| 20260507064907 | 48 | 335 | 0.0 | 0.0 | 0.00 | 0.00 | 0.00 | 63 | |
| 20260507064405 | 48 | 335 | 0.0 | 0.0 | 0.00 | 0.00 | 0.00 | 62 | |
| 20260507063903 | 48 | 335 | 0.0 | 0.0 | 0.00 | 0.00 | 0.00 | 62 | |
| 20260507063400 | 48 | 335 | 0.0 | 0.0 | 0.00 | 0.00 | 0.00 | 62 | |
| 20260507062856 | 48 | 335 | 0.0 | 0.0 | 0.00 | 0.00 | 0.00 | 64 | |
| 20260507062353 | 48 | 335 | 0.0 | 0.0 | 0.00 | 0.00 | 0.00 | 64 | |
| 20260507061851 | 48 | 335 | 0.0 | 0.0 | 0.00 | 0.00 | 0.00 | 64 | |
| 20260507061349 | 48 | 335 | 0.0 | 0.0 | 0.00 | 0.00 | 0.00 | 64 | |
| 20260507060847 | 48 | 335 | 0.0 | 0.0 | 0.00 | 0.00 | 0.00 | 66 | |
| 20260507060343 | 48 | 335 | 0.0 | 0.0 | 0.00 | 0.00 | 0.00 | 65 | |
| 20260507055840 | 48 | 335 | 0.0 | 0.0 | 0.00 | 0.00 | 0.00 | 65 | |
| 20260507055335 | 48 | 335 | 0.0 | 0.0 | 0.00 | 0.00 | 0.00 | 64 | |
| 20260507054832 | 48 | 335 | 0.0 | 0.0 | 0.00 | 0.00 | 0.00 | 65 | |
| 20260507054328 | 48 | 335 | 0.0 | 0.0 | 0.00 | 0.00 | 0.00 | 64 | |
| 20260507053826 | 48 | 335 | 0.0 | 0.0 | 0.00 | 0.00 | 0.00 | 64 | |
| 20260507053323 | 48 | 335 | 0.0 | 0.0 | 0.00 | 0.00 | 0.00 | 63 | |
| 20260507052822 | 48 | 335 | 0.0 | 0.0 | 0.00 | 0.00 | 0.00 | 64 | |
| 20260507052318 | 48 | 335 | 0.0 | 0.0 | 0.00 | 0.00 | 0.00 | 64 | |
| 20260507051816 | 48 | 335 | 0.0 | 0.0 | 0.00 | 0.00 | 0.00 | 65 | |
| 20260507051314 | 47 | 335 | 0.0 | 0.0 | 0.00 | 0.00 | 0.00 | 66 | |
| 20260507050810 | 48 | 335 | 0.0 | 0.0 | 0.00 | 0.00 | 0.00 | 65 | |
| 20260507050306 | 47 | 335 | 0.0 | 0.0 | 0.00 | 0.00 | 0.00 | 65 | |
| 20260507045803 | 47 | 335 | 0.0 | 0.0 | 0.00 | 0.02 | 0.02 | 65 | |
| 20260507045300 | 47 | 335 | 0.0 | 0.0 | 0.00 | 0.02 | 0.02 | 65 | |
| 20260507044757 | 47 | 335 | 0.0 | 0.0 | 0.00 | 0.02 | 0.02 | 64 | |
| 20260507044253 | 48 | 335 | 0.0 | 0.0 | 0.00 | 0.02 | 0.02 | 64 | |
| 20260507043750 | 48 | 335 | 0.0 | 0.0 | 0.00 | 0.02 | 0.02 | 64 | |
| 20260507043247 | 48 | 335 | 0.0 | 0.0 | 0.00 | 0.02 | 0.02 | 65 | |
| 20260507042742 | 47 | 335 | 0.0 | 0.0 | 0.00 | 0.02 | 0.02 | 65 | |
| 20260507042238 | 48 | 335 | 0.0 | 0.0 | 0.00 | 0.02 | 0.02 | 65 | |
| 20260507041736 | 48 | 335 | 0.0 | 0.0 | 0.00 | 0.02 | 0.02 | 63 | |
| 20260507041232 | 48 | 335 | 0.0 | 0.0 | 0.00 | 0.02 | 0.02 | 64 | |
| 20260507040729 | 48 | 335 | 0.0 | 0.0 | 0.00 | 0.02 | 0.02 | 64 | |
| 20260507040225 | 48 | 335 | 0.0 | 0.0 | 0.00 | 0.02 | 0.02 | 64 | |
| 20260507035721 | 48 | 331 | 0.0 | 0.0 | 0.00 | 0.02 | 0.02 | 64 | |
| 20260507035217 | 47 | 331 | 0.0 | 0.0 | 0.00 | 0.02 | 0.02 | 65 | |
| 20260507034714 | 47 | 331 | 0.0 | 0.0 | 0.00 | 0.02 | 0.02 | 64 | |
| 20260507034212 | 47 | 331 | 0.0 | 0.0 | 0.00 | 0.02 | 0.02 | 64 | |
| 20260507033710 | 46 | 331 | 0.0 | 0.0 | 0.00 | 0.02 | 0.02 | 65 | |
| 20260507033207 | 47 | 330 | 0.0 | 0.0 | 0.00 | 0.02 | 0.02 | 67 | |
| 20260507032704 | 47 | 330 | 0.0 | 0.0 | 0.00 | 0.02 | 0.02 | 67 | |
| 20260507032154 | 47 | 330 | 0.0 | 0.0 | 0.00 | 0.02 | 0.02 | 67 | |
| 20260507031651 | 47 | 330 | 0.0 | 0.0 | 0.00 | 0.02 | 0.02 | 67 | |
| 20260507031148 | 47 | 330 | 0.0 | 0.0 | 0.00 | 0.02 | 0.02 | 65 | |
| 20260507030644 | 47 | 330 | 0.0 | 0.0 | 0.00 | 0.02 | 0.02 | 66 | |
| 20260507030143 | 47 | 330 | 0.0 | 0.0 | 0.00 | 0.02 | 0.02 | 64 | |
| 20260507025639 | 47 | 330 | 0.0 | 0.0 | 0.00 | 0.02 | 0.02 | 64 | |
| 20260507025136 | 47 | 330 | 0.0 | 0.0 | 0.00 | 0.02 | 0.02 | 66 | |
| 20260507024634 | 48 | 330 | 0.0 | 0.0 | 0.00 | 0.02 | 0.02 | 66 | |
| 20260507024131 | 48 | 330 | 0.0 | 0.0 | 0.00 | 0.02 | 0.02 | 63 | |
| 20260507023626 | 48 | 330 | 0.0 | 0.0 | 0.00 | 0.02 | 0.02 | 61 | |
| 20260507023125 | 48 | 330 | 0.0 | 0.0 | 0.00 | 0.02 | 0.02 | 63 | |
| 20260507022621 | 48 | 330 | 0.0 | 0.0 | 0.00 | 0.02 | 0.02 | 63 | |
| 20260507022116 | 49 | 330 | 0.0 | 0.0 | 0.00 | 0.02 | 0.02 | 64 | |
| 20260507021613 | 49 | 330 | 0.0 | 0.0 | 0.00 | 0.02 | 0.02 | 64 | |
| 20260507021109 | 49 | 330 | 0.0 | 0.0 | 0.00 | 0.02 | 0.02 | 62 | |
| 20260507020607 | 49 | 329 | 0.0 | 0.0 | 0.00 | 0.02 | 0.02 | 62 | |
| 20260507015602 | 50 | 329 | 0.0 | 0.0 | 0.00 | 0.02 | 0.02 | 56 | |
| 20260507015059 | 50 | 330 | 0.0 | 0.0 | 0.00 | 0.02 | 0.02 | 54 | |
| 20260507014555 | 51 | 329 | 0.0 | 0.0 | 0.00 | 0.02 | 0.02 | 53 | |
| 20260507014045 | 51 | 329 | 0.0 | 0.0 | 0.00 | 0.02 | 0.02 | 54 | |
| 20260507013542 | 51 | 329 | 0.0 | 0.0 | 0.00 | 0.02 | 0.02 | 55 | |
| 20260507013040 | 52 | 329 | 0.0 | 0.0 | 0.00 | 0.02 | 0.02 | 54 | |
| 20260507012537 | 52 | 325 | 0.0 | 0.0 | 0.00 | 0.02 | 0.02 | 53 | |
| 20260507012032 | 53 | 325 | 0.0 | 0.0 | 0.00 | 0.02 | 0.02 | 48 | |
| 20260507011530 | 53 | 321 | 0.0 | 0.0 | 0.00 | 0.02 | 0.02 | 47 | |
| 20260507011026 | 54 | 321 | 0.0 | 0.0 | 0.00 | 0.02 | 0.02 | 45 | |
| 20260507010521 | 55 | 320 | 0.0 | 0.0 | 0.00 | 0.02 | 0.02 | 43 | |
| 20260507010017 | 55 | 319 | 0.0 | 0.0 | 0.00 | 0.02 | 0.02 | 44 | |
| 20260507005514 | 55 | 315 | 0.0 | 0.0 | 0.00 | 0.02 | 0.02 | 42 | |
| 20260507005011 | 56 | 309 | 0.0 | 0.0 | 0.00 | 0.02 | 0.02 | 43 | |
| 20260507004508 | 56 | 315 | 0.0 | 0.0 | 0.00 | 0.02 | 0.02 | 41 | |
| 20260507004006 | 56 | 254 | 1.0 | 2.0 | 0.00 | 0.02 | 0.02 | 40 | |
| 20260507003501 | 56 | 303 | 0.0 | 0.0 | 0.00 | 0.02 | 0.02 | 42 | |
| 20260507002956 | 57 | 306 | 1.0 | 3.0 | 0.00 | 0.02 | 0.02 | 38 | |
| 20260507002453 | 57 | 306 | 1.0 | 3.0 | 0.00 | 0.02 | 0.02 | 39 | |
| 20260507001949 | 57 | 319 | 0.0 | 3.0 | 0.00 | 0.02 | 0.02 | 40 | |
| 20260507001446 | 57 | 276 | 1.0 | 2.0 | 0.00 | 0.02 | 0.02 | 39 | |
| 20260507000943 | 57 | 290 | 2.0 | 3.0 | 0.00 | 0.02 | 0.02 | 37 | |
| 20260507000438 | 57 | 276 | 0.0 | 3.0 | 0.00 | 0.02 | 0.02 | 40 | |
| 20260506235934 | 57 | 296 | 3.0 | 3.0 | 0.00 | 0.02 | 0.02 | 38 | |
| 20260506235432 | 57 | 312 | 1.0 | 5.0 | 0.00 | 0.02 | 0.02 | 37 | |
| 20260506234927 | 58 | 302 | 2.0 | 3.0 | 0.00 | 0.02 | 0.02 | 35 | |
| 20260506234426 | 58 | 244 | 6.0 | 7.0 | 0.00 | 0.02 | 0.02 | 35 | |
| 20260506233923 | 58 | 254 | 2.0 | 6.0 | 0.00 | 0.02 | 0.02 | 38 | |
| 20260506233420 | 58 | 160 | 3.0 | 6.0 | 0.00 | 0.02 | 0.02 | 37 | |
| 20260506232916 | 58 | 203 | 3.0 | 7.0 | 0.00 | 0.02 | 0.02 | 38 | |
| 20260506232412 | 58 | 288 | 1.0 | 3.0 | 0.00 | 0.02 | 0.02 | 36 | |
| 20260506231908 | 58 | 289 | 2.0 | 3.0 | 0.00 | 0.02 | 0.02 | 37 | |
| 20260506231406 | 58 | 304 | 0.0 | 3.0 | 0.00 | 0.02 | 0.02 | 38 | |
| 20260506230903 | 58 | 308 | 2.0 | 3.0 | 0.00 | 0.02 | 0.02 | 37 | |
| 20260506230400 | 58 | 294 | 2.0 | 3.0 | 0.00 | 0.02 | 0.02 | 38 | |
| 20260506225856 | 58 | 323 | 0.0 | 2.0 | 0.00 | 0.02 | 0.02 | 38 | |
| 20260506225353 | 58 | 274 | 1.0 | 6.0 | 0.00 | 0.02 | 0.02 | 39 | |
| 20260506224850 | 58 | 228 | 2.0 | 3.0 | 0.00 | 0.02 | 0.02 | 39 | |
| 20260506224348 | 58 | 260 | 0.0 | 2.0 | 0.00 | 0.02 | 0.02 | 39 | |
| 20260506223844 | 58 | 293 | 2.0 | 5.0 | 0.00 | 0.02 | 0.02 | 38 | |
| 20260506223339 | 58 | 321 | 0.0 | 2.0 | 0.00 | 0.02 | 0.02 | 39 | |
| 20260506222836 | 58 | 261 | 2.0 | 7.0 | 0.00 | 0.02 | 0.02 | 38 | |
| 20260506222331 | 58 | 309 | 3.0 | 5.0 | 0.00 | 0.02 | 0.02 | 38 | |
| 20260506221825 | 58 | 207 | 3.0 | 5.0 | 0.00 | 0.02 | 0.02 | 37 | |
| 20260506221322 | 58 | 280 | 4.0 | 6.0 | 0.00 | 0.02 | 0.02 | 35 | |
| 20260506220819 | 58 | 263 | 1.0 | 2.0 | 0.00 | 0.02 | 0.02 | 38 | |
| 20260506220314 | 58 | 299 | 1.0 | 3.0 | 0.00 | 0.02 | 0.02 | 37 | |
| 20260506215811 | 58 | 249 | 5.0 | 7.0 | 0.00 | 0.02 | 0.02 | 37 | |
| 20260506215307 | 58 | 216 | 1.0 | 6.0 | 0.00 | 0.02 | 0.02 | 39 | |
| 20260506214803 | 59 | 172 | 4.0 | 5.0 | 0.00 | 0.02 | 0.02 | 39 | |
| 20260506214300 | 58 | 296 | 3.0 | 5.0 | 0.00 | 0.02 | 0.02 | 38 | |
| 20260506213758 | 58 | 309 | 3.0 | 5.0 | 0.00 | 0.02 | 0.02 | 37 | |
| 20260506213254 | 58 | 270 | 3.0 | 6.0 | 0.00 | 0.02 | 0.02 | 39 | |
| 20260506212752 | 58 | 304 | 3.0 | 3.0 | 0.00 | 0.02 | 0.02 | 37 | |
| 20260506212247 | 58 | 279 | 4.0 | 7.0 | 0.00 | 0.02 | 0.02 | 40 | |
| 20260506211743 | 59 | 313 | 0.0 | 3.0 | 0.00 | 0.02 | 0.02 | 39 | |
| 20260506211240 | 58 | 287 | 3.0 | 7.0 | 0.00 | 0.02 | 0.02 | 38 | |
| 20260506210737 | 58 | 327 | 4.0 | 8.0 | 0.00 | 0.02 | 0.02 | 38 | |
| 20260506210233 | 58 | 310 | 3.0 | 7.0 | 0.00 | 0.02 | 0.02 | 37 | |
| 20260506205730 | 59 | 323 | 4.0 | 5.0 | 0.00 | 0.02 | 0.02 | 39 | |
| 20260506205226 | 58 | 303 | 0.0 | 2.0 | 0.00 | 0.02 | 0.02 | 42 | |
| 20260506204718 | 58 | 289 | 2.0 | 5.0 | 0.00 | 0.02 | 0.02 | 38 | |
| 20260506204215 | 57 | 301 | 1.0 | 2.0 | 0.00 | 0.02 | 0.02 | 41 | |
| 20260506203713 | 57 | 315 | 0.0 | 5.0 | 0.00 | 0.02 | 0.02 | 38 | |
| 20260506203210 | 57 | 127 | 1.0 | 6.0 | 0.00 | 0.02 | 0.02 | 41 | |
| 20260506202708 | 58 | 221 | 2.0 | 7.0 | 0.00 | 0.02 | 0.02 | 41 | |
| 20260506202203 | 58 | 253 | 5.0 | 7.0 | 0.00 | 0.02 | 0.02 | 37 | |
| 20260506201701 | 57 | 286 | 3.0 | 8.0 | 0.00 | 0.02 | 0.02 | 39 | |
| 20260506201157 | 58 | 205 | 3.0 | 6.0 | 0.00 | 0.02 | 0.02 | 37 | |
| 20260506200654 | 58 | 287 | 2.0 | 5.0 | 0.00 | 0.02 | 0.02 | 38 | |
| 20260506200150 | 58 | 307 | 4.0 | 6.0 | 0.00 | 0.02 | 0.02 | 38 | |
| 20260506195647 | 58 | 320 | 3.0 | 7.0 | 0.00 | 0.02 | 0.02 | 39 | |
| 20260506195143 | 57 | 301 | 0.0 | 3.0 | 0.00 | 0.02 | 0.02 | 43 | |
| 20260506194641 | 58 | 325 | 0.0 | 5.0 | 0.00 | 0.02 | 0.02 | 43 | |
| 20260506194137 | 58 | 210 | 2.0 | 3.0 | 0.00 | 0.02 | 0.02 | 41 | |
| 20260506193635 | 57 | 322 | 3.0 | 5.0 | 0.00 | 0.02 | 0.02 | 38 | |
| 20260506193132 | 57 | 307 | 2.0 | 3.0 | 0.00 | 0.02 | 0.02 | 40 | |
| 20260506192628 | 57 | 285 | 4.0 | 7.0 | 0.00 | 0.02 | 0.02 | 37 | |
| 20260506192124 | 57 | 286 | 3.0 | 5.0 | 0.00 | 0.02 | 0.02 | 38 | |
| 20260506191621 | 57 | 184 | 5.0 | 8.0 | 0.00 | 0.02 | 0.02 | 40 | |
| 20260506191117 | 57 | 329 | 1.0 | 5.0 | 0.00 | 0.02 | 0.02 | 40 | |
| 20260506190615 | 57 | 313 | 1.0 | 6.0 | 0.00 | 0.02 | 0.02 | 40 | |
| 20260506190111 | 56 | 221 | 2.0 | 3.0 | 0.00 | 0.02 | 0.02 | 44 | |
| 20260506185609 | 57 | 297 | 3.0 | 3.0 | 0.00 | 0.02 | 0.02 | 38 | |
| 20260506185105 | 56 | 296 | 2.0 | 3.0 | 0.00 | 0.02 | 0.02 | 37 | |
| 20260506184602 | 56 | 293 | 2.0 | 3.0 | 0.00 | 0.02 | 0.02 | 46 | |
| 20260506184059 | 57 | 236 | 3.0 | 5.0 | 0.00 | 0.02 | 0.02 | 42 | |
| 20260506183556 | 56 | 293 | 1.0 | 3.0 | 0.00 | 0.02 | 0.02 | 42 | |
| 20260506183052 | 56 | 290 | 2.0 | 3.0 | 0.00 | 0.02 | 0.02 | 39 | |
| 20260506182550 | 55 | 283 | 1.0 | 5.0 | 0.00 | 0.02 | 0.02 | 47 | |
| 20260506182047 | 54 | 272 | 4.0 | 6.0 | 0.00 | 0.02 | 0.02 | 41 | |
| 20260506181545 | 54 | 264 | 2.0 | 6.0 | 0.00 | 0.02 | 0.02 | 43 | |
| 20260506181041 | 54 | 295 | 5.0 | 8.0 | 0.00 | 0.02 | 0.02 | 42 | |
| 20260506180537 | 54 | 290 | 2.0 | 5.0 | 0.00 | 0.02 | 0.02 | 41 | |
| 20260506180035 | 54 | 297 | 0.0 | 0.0 | 0.00 | 0.02 | 0.02 | 42 | |
| 20260506175531 | 54 | 246 | 3.0 | 6.0 | 0.00 | 0.02 | 0.02 | 45 | |
| 20260506175027 | 54 | 319 | 1.0 | 5.0 | 0.00 | 0.02 | 0.02 | 43 | |
| 20260506174526 | 54 | 295 | 3.0 | 5.0 | 0.00 | 0.02 | 0.02 | 43 | |
| 20260506174022 | 53 | 290 | 0.0 | 2.0 | 0.00 | 0.02 | 0.02 | 47 | |
| 20260506173520 | 53 | 239 | 3.0 | 3.0 | 0.00 | 0.02 | 0.02 | 44 | |
| 20260506173017 | 54 | 296 | 1.0 | 7.0 | 0.00 | 0.02 | 0.02 | 43 | |
| 20260506172514 | 54 | 306 | 0.0 | 3.0 | 0.00 | 0.02 | 0.02 | 46 | |
| 20260506172010 | 54 | 313 | 1.0 | 6.0 | 0.00 | 0.02 | 0.02 | 41 | |
| 20260506171507 | 55 | 294 | 2.0 | 5.0 | 0.00 | 0.02 | 0.02 | 41 | |
| 20260506171004 | 55 | 286 | 1.0 | 6.0 | 0.00 | 0.02 | 0.02 | 43 | |
| 20260506170502 | 55 | 283 | 2.0 | 2.0 | 0.00 | 0.02 | 0.02 | 45 | |
| 20260506170000 | 55 | 325 | 2.0 | 6.0 | 0.00 | 0.02 | 0.02 | 42 | |
| 20260506165458 | 55 | 245 | 2.0 | 3.0 | 0.00 | 0.02 | 0.02 | 44 | |
| 20260506164954 | 54 | 215 | 2.0 | 5.0 | 0.00 | 0.02 | 0.02 | 44 | |
| 20260506164451 | 53 | 317 | 1.0 | 5.0 | 0.00 | 0.02 | 0.02 | 44 | |
| 20260506163949 | 53 | 323 | 0.0 | 5.0 | 0.00 | 0.02 | 0.02 | 46 | |
| 20260506163443 | 53 | 273 | 2.0 | 7.0 | 0.00 | 0.02 | 0.02 | 46 | |
| 20260506162938 | 53 | 216 | 1.0 | 6.0 | 0.00 | 0.02 | 0.02 | 45 | |
| 20260506162436 | 53 | 263 | 3.0 | 5.0 | 0.00 | 0.02 | 0.02 | 44 | |
| 20260506161934 | 53 | 313 | 1.0 | 5.0 | 0.00 | 0.02 | 0.02 | 45 | |
| 20260506161432 | 53 | 205 | 4.0 | 10.0 | 0.00 | 0.02 | 0.02 | 43 | |
| 20260506160929 | 53 | 282 | 4.0 | 6.0 | 0.00 | 0.02 | 0.02 | 46 | |
| 20260506160426 | 52 | 282 | 0.0 | 1.0 | 0.00 | 0.02 | 0.02 | 47 | |
| 20260506155923 | 52 | 318 | 2.0 | 3.0 | 0.00 | 0.02 | 0.02 | 46 | |
| 20260506155420 | 52 | 294 | 3.0 | 6.0 | 0.00 | 0.02 | 0.02 | 45 |